UMMENDORF Weather Reports


time (UTC)temp
C
wind
direction
speed
KPH
gust
KPH
rain 1hr
cm
rain 24hr
cm
rain mn
cm
humidity
%
barometer
mb
20260507150210 14 349 9.7 0.0 0.00 0.00 0.15 49 1015.4
20260507143212 14 291 12.9 0.0 0.00 0.00 0.15 51 1015.5
20260507140210 14 355 16.1 0.0 0.00 0.00 0.15 50 1015.4
20260507133210 13 279 17.7 0.0 0.00 0.00 0.15 52 1015.5
20260507130210 12 355 14.5 0.0 0.00 0.00 0.15 54 1015.5
20260507123210 12 304 14.5 0.0 0.00 0.00 0.15 55 1015.4
20260507120211 11 283 4.8 0.0 0.00 0.00 0.15 62 1015.4
20260507113210 10 202 0.0 0.0 0.00 0.00 0.15 63 1015.5
20260507110210 10 20 0.0 0.0 0.00 0.00 0.13 61 1015.5
20260507103216 10 341 1.6 0.0 0.00 0.00 0.08 58 1015.5
20260507100212 11 280 12.9 0.0 0.00 0.00 0.08 56 1015.4
20260507093211 11 252 14.5 0.0 0.00 0.00 0.08 59 1015.2
20260507090211 10 211 17.7 0.0 0.00 0.00 0.08 63 1015.0
20260507083212 10 219 22.5 0.0 0.00 0.00 0.08 66 1014.8
20260507080211 9 220 19.3 0.0 0.00 0.00 0.08 66 1014.8
20260507073212 9 236 17.7 0.0 0.00 0.00 0.05 66 1014.4
20260507070212 8 219 16.1 0.0 0.00 0.00 0.05 66 1014.2
20260507063211 8 240 19.3 0.0 0.00 0.00 0.05 65 1014.1
20260507060211 8 221 19.3 0.0 0.00 0.00 0.00 64 1013.8
20260507053211 8 211 17.7 0.0 0.00 0.00 0.00 64 1013.5
20260507050213 8 223 17.7 0.0 0.00 0.00 0.00 63 1013.2
20260507043211 8 229 19.3 0.0 0.00 0.00 0.00 62 1012.8
20260507040216 8 225 14.5 0.0 0.00 0.00 0.00 61 1012.5
20260507033211 8 209 22.5 0.0 0.00 0.00 0.00 61 1012.4
20260507030211 8 244 14.5 0.0 0.00 0.00 0.00 61 1012.2
20260507023211 8 235 25.7 0.0 0.00 0.00 0.00 62 1012.0
20260507020211 8 234 22.5 0.0 0.00 0.00 0.00 62 1011.9
20260507013212 8 265 16.1 0.0 0.00 0.00 0.00 63 1011.8
20260507010211 8 207 12.9 0.0 0.00 0.00 0.00 62 1011.8
20260507003209 8 204 14.5 0.0 0.00 0.00 0.00 62 1011.7
20260507000209 8 232 17.7 0.0 0.00 0.00 0.00 63 1011.7
20260506233209 8 247 17.7 0.0 0.00 0.00 0.00 64 1011.5
20260506230209 8 248 12.9 0.0 0.00 0.00 0.00 63 1011.4
20260506223209 8 220 6.4 0.0 0.00 0.00 0.00 63 1011.4
20260506213209 8 233 20.9 0.0 0.00 0.00 0.20 64 1011.0
20260506210210 8 240 9.7 0.0 0.00 0.00 0.20 62 1010.7
20260506203210 9 224 19.3 0.0 0.00 0.00 0.20 63 1010.8
20260506200210 9 195 16.1 0.0 0.00 0.00 0.20 63 1010.5
20260506193215 9 231 16.1 0.0 0.00 0.00 0.20 63 1010.2
20260506190211 9 223 22.5 0.0 0.00 0.00 0.20 61 1009.7
20260506183209 10 211 19.3 0.0 0.00 0.00 0.20 62 1009.2
20260506180216 10 213 20.9 0.0 0.00 0.00 0.20 62 1009.2
20260506173210 10 246 24.1 0.0 0.00 0.00 0.20 61 1008.9
20260506170215 10 256 22.5 0.0 0.00 0.00 0.20 60 1008.5
20260506163210 10 224 17.7 0.0 0.00 0.00 0.20 62 1008.4
20260506160210 10 260 19.3 0.0 0.00 0.00 0.20 63 1008.2
20260506153210 10 256 46.7 0.0 0.00 0.00 0.18 62 1007.8